SATCOM C1

导读

SATCOM C1是美国于1990年11月20日08:00发射的一颗卫星,隶属于SATCOM系列通信卫星体系。作为美军早期军事通信卫星部署的重要一环,它主要承担战略战术通信中继任务,为海外军事行动提供稳定的通信联络支持,强化了美国全球范围内军事指挥与信息传输能力,是冷战末期美国太空军事通信网络建设的组成部分。

基本信息
目录编号:
20945
目录名称:
SATCOM C1
国际标识:
1990-100A
轨道中心:
EARTH
卫星名称:
SATCOM C1
卫星全名:
--
卫星状态:
在轨 (已飞行13020 天)
发射日期:
1990-11-20 UTC
国别 :
美国 (US)
星等 :
--
轨道信息
数据来源 国际轨道数据 AOE轨道数据
星历时间 2026-07-14T00:05:34+0800
16小时前
查看轨道信息
2026-07-12T16:00:00+0800
2天前
查看轨道信息
半长轴 42471.577km 42471.634km
偏心率 0.0013782 0.0013901
轨道倾角 13.475° 13.475°
近地点辐角 23.619° 23.224°
升交点赤经 15.166° 15.178°
平近点角 327.215° 210.115°
近地点 36034.905km 36034.457km
远地点 36151.975km 36152.537km
周期 1451.802分钟 1451.805分钟
每日圈数 0.991871 0.991869
详细信息
使用方式:
暂无
2D轨道图
3D轨道图
轨道高度分析图
轨道倾角分析图
轨道综合分析图
查看轨道综合分析图